Location: Newark
(25.4297°S, 49.2719°W)
Time: 04:04:39
(UTC+00:00)

Hubble Space Telescope - Pass Details

Date: 30 June 2021
Orbit: 535 x 539 km, 28.5° (Epoch: 28 July)

Event Time Altitude Azimuth Distance (km) Brightness Sun altitude
Rises 23:02:24 0° 284° (WNW) 2,673 5.5 -31.6°
Reaches altitude 10° 23:04:40 10° 284° (WNW) 1,785 4.3 -32.1°
Enters shadow 23:06:05 21° 283° (WNW) 1,245 3.2 -32.4°
